• în Republica Moldova
  • Lista ţărilor
  • Pe 7 zile
  • Temperatura apei
  • Hartă satelitară
  • Meteo pe hartă
  • Widget-uri
  • user-avatar
    Intrare

    Meteo pe oră la Biskira

    Astăzi, 21 Februarie, Marţi

    Timp Temperatura Precipitaţii Vânt Presiune Umiditate
    00:00 +15°C° 0 mm 2 m/s 756 mmHg 51%
    01:00 +14°C° 0 mm 2 m/s 756 mmHg 52%
    02:00 +14°C° 0 mm 1 m/s 756 mmHg 53%
    03:00 +14°C° 0 mm 1 m/s 756 mmHg 54%
    04:00 +13°C° 0 mm 1 m/s 756 mmHg 56%
    05:00 +13°C° 0 mm 1 m/s 756 mmHg 57%
    06:00 +12°C° 0 mm 1 m/s 756 mmHg 59%
    07:00 +14°C° 0 mm 1 m/s 756 mmHg 52%
    08:00 +16°C° 0 mm 1 m/s 756 mmHg 45%
    09:00 +20°C° 0 mm 1 m/s 757 mmHg 39%
    10:00 +20°C° 0 mm 2 m/s 756 mmHg 36%
    11:00 +21°C° 0 mm 2 m/s 756 mmHg 34%
    12:00 +22°C° 0 mm 3 m/s 756 mmHg 31%
    13:00 +22°C° 0 mm 4 m/s 756 mmHg 31%
    14:00 +22°C° 0 mm 4 m/s 755 mmHg 31%
    15:00 +23°C° 0 mm 4 m/s 755 mmHg 31%
    16:00 +21°C° 0 mm 4 m/s 755 mmHg 34%
    17:00 +20°C° 0 mm 3 m/s 755 mmHg 38%
    18:00 +19°C° 0 mm 3 m/s 756 mmHg 42%
    19:00 +18°C° 0 mm 2 m/s 756 mmHg 44%
    20:00 +17°C° 0 mm 2 m/s 756 mmHg 47%
    21:00 +17°C° 0 mm 2 m/s 756 mmHg 50%
    22:00 +16°C° 0 mm 2 m/s 757 mmHg 52%
    23:00 +16°C° 0 mm 2 m/s 757 mmHg 54%

    Mâine, 22 Februarie, Miercuri

    Timp Temperatura Precipitaţii Vânt Presiune Umiditate
    00:00 +15°C° 0 mm 2 m/s 757 mmHg 56%
    01:00 +15°C° 0 mm 2 m/s 757 mmHg 57%
    02:00 +15°C° 0 mm 1 m/s 757 mmHg 59%
    03:00 +14°C° 0 mm 1 m/s 757 mmHg 60%
    04:00 +14°C° 0 mm 1 m/s 757 mmHg 59%
    05:00 +15°C° 0 mm 2 m/s 757 mmHg 59%
    06:00 +15°C° 0 mm 2 m/s 757 mmHg 58%
    07:00 +16°C° 0 mm 2 m/s 757 mmHg 54%
    08:00 +18°C° 0 mm 1 m/s 757 mmHg 50%
    09:00 +19°C° 0 mm 1 m/s 757 mmHg 47%
    10:00 +20°C° 0 mm 1 m/s 757 mmHg 44%
    11:00 +21°C° 0 mm 2 m/s 756 mmHg 41%
    12:00 +23°C° 0 mm 2 m/s 756 mmHg 38%
    13:00 +23°C° 0 mm 2 m/s 756 mmHg 37%
    14:00 +24°C° 0 mm 2 m/s 755 mmHg 36%
    15:00 +24°C° 0 mm 2 m/s 754 mmHg 35%
    16:00 +23°C° 0 mm 2 m/s 755 mmHg 37%
    17:00 +21°C° 0 mm 2 m/s 755 mmHg 40%
    18:00 +20°C° 0 mm 2 m/s 755 mmHg 42%
    19:00 +20°C° 0,1 mm 2 m/s 755 mmHg 45%
    20:00 +19°C° 0,1 mm 2 m/s 755 mmHg 47%
    21:00 +19°C° 0,1 mm 1 m/s 756 mmHg 50%
    22:00 +18°C° 0 mm 2 m/s 756 mmHg 49%
    23:00 +18°C° 0 mm 2 m/s 755 mmHg 49%

    Poimâine, 23 Februarie, Joi

    Timp Temperatura Precipitaţii Vânt Presiune Umiditate
    00:00 +18°C° 0 mm 2 m/s 755 mmHg 49%
    01:00 +18°C° 0 mm 2 m/s 755 mmHg 50%
    02:00 +18°C° 0 mm 1 m/s 755 mmHg 50%
    03:00 +18°C° 0 mm 1 m/s 754 mmHg 51%
    04:00 +18°C° 0 mm 1 m/s 754 mmHg 52%
    05:00 +18°C° 0 mm 1 m/s 754 mmHg 53%
    06:00 +16°C° 0 mm 1 m/s 754 mmHg 54%
    07:00 +18°C° 0 mm 2 m/s 754 mmHg 48%
    08:00 +20°C° 0 mm 3 m/s 754 mmHg 42%
    09:00 +22°C° 0 mm 3 m/s 754 mmHg 36%
    10:00 +23°C° 0 mm 4 m/s 754 mmHg 33%
    11:00 +25°C° 0 mm 5 m/s 753 mmHg 29%
    12:00 +27°C° 0 mm 6 m/s 752 mmHg 26%
    13:00 +27°C° 0 mm 6 m/s 752 mmHg 26%
    14:00 +27°C° 0 mm 6 m/s 751 mmHg 26%
    15:00 +27°C° 0 mm 7 m/s 750 mmHg 26%
    16:00 +26°C° 0 mm 7 m/s 749 mmHg 27%
    17:00 +24°C° 0 mm 7 m/s 749 mmHg 29%
    18:00 +23°C° 0 mm 7 m/s 749 mmHg 31%
    19:00 +23°C° 0 mm 7 m/s 749 mmHg 30%
    20:00 +23°C° 0 mm 7 m/s 749 mmHg 30%
    21:00 +23°C° 0 mm 8 m/s 749 mmHg 30%
    22:00 +22°C° 0 mm 6 m/s 749 mmHg 31%
    23:00 +21°C° 0 mm 5 m/s 748 mmHg 32%

    24 Februarie, Vineri

    Timp Temperatura Precipitaţii Vânt Presiune Umiditate
    00:00 +20°C° 0 mm 4 m/s 748 mmHg 33%
    01:00 +19°C° 0 mm 3 m/s 748 mmHg 35%
    02:00 +18°C° 0 mm 2 m/s 748 mmHg 36%
    03:00 +17°C° 0 mm 2 m/s 748 mmHg 38%
    04:00 +17°C° 0 mm 2 m/s 748 mmHg 39%
    05:00 +16°C° 0 mm 2 m/s 748 mmHg 40%
    06:00 +16°C° 0 mm 2 m/s 749 mmHg 41%
    07:00 +18°C° 0 mm 3 m/s 749 mmHg 39%
    08:00 +19°C° 0 mm 3 m/s 750 mmHg 37%
    09:00 +21°C° 0 mm 4 m/s 750 mmHg 35%
    10:00 +22°C° 0 mm 4 m/s 750 mmHg 33%
    11:00 +23°C° 0 mm 5 m/s 750 mmHg 31%
    12:00 +25°C° 0 mm 5 m/s 750 mmHg 29%
    13:00 +26°C° 0 mm 5 m/s 750 mmHg 29%
    14:00 +26°C° 0 mm 5 m/s 749 mmHg 29%
    15:00 +26°C° 0 mm 6 m/s 749 mmHg 29%
    16:00 +25°C° 0 mm 5 m/s 749 mmHg 34%
    17:00 +23°C° 0 mm 5 m/s 750 mmHg 39%
    18:00 +21°C° 0 mm 4 m/s 750 mmHg 43%
    19:00 +21°C° 0 mm 5 m/s 751 mmHg 48%
    20:00 +20°C° 0 mm 5 m/s 752 mmHg 53%
    21:00 +19°C° 0 mm 5 m/s 753 mmHg 58%
    22:00 +17°C° 0 mm 5 m/s 753 mmHg 59%
    23:00 +17°C° 0 mm 5 m/s 753 mmHg 61%

    25 Februarie, Sâmbătă

    Timp Temperatura Precipitaţii Vânt Presiune Umiditate
    00:00 +16°C° 0 mm 5 m/s 753 mmHg 63%
    01:00 +16°C° 0 mm 5 m/s 753 mmHg 64%
    02:00 +15°C° 0 mm 5 m/s 753 mmHg 65%
    03:00 +15°C° 0 mm 5 m/s 753 mmHg 67%
    04:00 +15°C° 0 mm 5 m/s 754 mmHg 68%
    05:00 +14°C° 0 mm 5 m/s 754 mmHg 68%
    06:00 +14°C° 0 mm 5 m/s 755 mmHg 69%
    07:00 +17°C° 0 mm 4 m/s 756 mmHg 63%
    08:00 +18°C° 0 mm 4 m/s 756 mmHg 56%
    09:00 +19°C° 0 mm 4 m/s 757 mmHg 50%
    10:00 +20°C° 0 mm 3 m/s 757 mmHg 46%
    11:00 +21°C° 0 mm 3 m/s 757 mmHg 43%
    12:00 +23°C° 0 mm 2 m/s 756 mmHg 40%
    13:00 +24°C° 0 mm 2 m/s 756 mmHg 38%
    14:00 +24°C° 0 mm 2 m/s 756 mmHg 37%
    15:00 +24°C° 0 mm 2 m/s 756 mmHg 36%
    16:00 +23°C° 0 mm 2 m/s 756 mmHg 39%
    17:00 +21°C° 0 mm 2 m/s 756 mmHg 41%
    18:00 +20°C° 0 mm 2 m/s 757 mmHg 44%
    19:00 +20°C° 0 mm 2 m/s 757 mmHg 46%
    20:00 +19°C° 0 mm 2 m/s 758 mmHg 48%
    21:00 +18°C° 0 mm 3 m/s 758 mmHg 50%
    22:00 +18°C° 0 mm 3 m/s 758 mmHg 51%
    23:00 +17°C° 0 mm 3 m/s 758 mmHg 51%

    26 Februarie, Duminică

    Timp Temperatura Precipitaţii Vânt Presiune Umiditate
    00:00 +17°C° 0 mm 3 m/s 758 mmHg 52%
    01:00 +16°C° 0 mm 2 m/s 758 mmHg 54%
    02:00 +16°C° 0 mm 2 m/s 758 mmHg 55%
    03:00 +15°C° 0 mm 2 m/s 758 mmHg 57%
    04:00 +15°C° 0 mm 1 m/s 758 mmHg 58%
    05:00 +14°C° 0 mm 1 m/s 759 mmHg 60%
    06:00 +14°C° 0 mm 1 m/s 759 mmHg 62%
    07:00 +15°C° 0 mm 1 m/s 759 mmHg 58%
    08:00 +16°C° 0 mm 2 m/s 759 mmHg 54%
    09:00 +18°C° 0 mm 2 m/s 759 mmHg 50%
    10:00 +18°C° 0 mm 2 m/s 759 mmHg 48%
    11:00 +19°C° 0 mm 2 m/s 758 mmHg 45%
    12:00 +20°C° 0 mm 2 m/s 758 mmHg 43%
    13:00 +21°C° 0 mm 2 m/s 757 mmHg 41%
    14:00 +21°C° 0 mm 2 m/s 757 mmHg 39%
    15:00 +21°C° 0 mm 2 m/s 756 mmHg 38%
    16:00 +21°C° 0 mm 2 m/s 756 mmHg 41%
    17:00 +20°C° 0 mm 2 m/s 756 mmHg 44%
    18:00 +19°C° 0 mm 2 m/s 756 mmHg 47%
    19:00 +18°C° 0 mm 2 m/s 756 mmHg 49%
    20:00 +18°C° 0 mm 2 m/s 757 mmHg 51%
    21:00 +17°C° 0 mm 2 m/s 757 mmHg 54%
    22:00 +16°C° 0 mm 2 m/s 757 mmHg 55%
    23:00 +16°C° 0 mm 2 m/s 757 mmHg 57%
    Arată mai mult